When you browse on this site, cookies collect data to enhance your experience and personalize the content and advertising you see.
Visit our Privacy Policy to learn more. By continuing to use the site, you agree to this use of cookies and data.
  • In Switzerland
  • List of Countries
  • For 7 days
  • Water Temperature
  • Satellite Maps
  • Weather Map
  • Weather Widgets
  • user-avatar
    Login

    Hourly Weather Zalozie

    Today, 24 June, Monday

    Time Temperature Precipitation Wind Pressure Humidity
    00:00 +15°C° 0 mm 2 mps 754 mmHg 77%
    01:00 +15°C° 0 mm 2 mps 754 mmHg 77%
    02:00 +15°C° 0 mm 2 mps 754 mmHg 80%
    03:00 +15°C° 0 mm 2 mps 754 mmHg 82%
    04:00 +15°C° 0 mm 2 mps 755 mmHg 84%
    05:00 +16°C° 0 mm 2 mps 755 mmHg 80%
    06:00 +18°C° 0 mm 3 mps 755 mmHg 75%
    07:00 +21°C° 0 mm 3 mps 755 mmHg 70%
    08:00 +22°C° 0 mm 3 mps 755 mmHg 67%
    09:00 +25°C° 0 mm 3 mps 755 mmHg 63%
    10:00 +26°C° 0 mm 4 mps 755 mmHg 60%
    11:00 +27°C° 0 mm 4 mps 755 mmHg 59%
    12:00 +27°C° 0 mm 4 mps 755 mmHg 57%
    13:00 +27°C° 0 mm 4 mps 755 mmHg 56%
    14:00 +27°C° 0 mm 4 mps 755 mmHg 55%
    15:00 +28°C° 0 mm 4 mps 755 mmHg 54%
    16:00 +28°C° 0 mm 5 mps 755 mmHg 53%
    17:00 +27°C° 0 mm 4 mps 755 mmHg 58%
    18:00 +25°C° 0 mm 4 mps 755 mmHg 63%
    19:00 +24°C° 0 mm 3 mps 755 mmHg 67%
    20:00 +22°C° 0 mm 3 mps 756 mmHg 69%
    21:00 +21°C° 0 mm 4 mps 756 mmHg 71%
    22:00 +19°C° 0 mm 4 mps 756 mmHg 73%
    23:00 +19°C° 0 mm 4 mps 756 mmHg 74%

    Tomorrow, 25 June, Tuesday

    Time Temperature Precipitation Wind Pressure Humidity
    00:00 +18°C° 0 mm 3 mps 757 mmHg 75%
    01:00 +17°C° 0 mm 3 mps 757 mmHg 76%
    02:00 +17°C° 0 mm 3 mps 756 mmHg 78%
    03:00 +16°C° 0 mm 3 mps 756 mmHg 80%
    04:00 +16°C° 0 mm 3 mps 756 mmHg 82%
    05:00 +18°C° 0 mm 3 mps 756 mmHg 80%
    06:00 +19°C° 0 mm 4 mps 756 mmHg 77%
    07:00 +21°C° 0 mm 5 mps 757 mmHg 74%
    08:00 +23°C° 0 mm 5 mps 756 mmHg 71%
    09:00 +26°C° 0 mm 5 mps 756 mmHg 68%
    10:00 +27°C° 0 mm 5 mps 756 mmHg 64%
    11:00 +28°C° 0 mm 5 mps 756 mmHg 62%
    12:00 +29°C° 0 mm 5 mps 756 mmHg 60%
    13:00 +32°C° 0 mm 5 mps 756 mmHg 58%
    14:00 +32°C° 0 mm 5 mps 756 mmHg 58%
    15:00 +32°C° 0 mm 5 mps 755 mmHg 59%
    16:00 +32°C° 0 mm 5 mps 755 mmHg 59%
    17:00 +30°C° 0 mm 4 mps 755 mmHg 65%
    18:00 +29°C° 0 mm 4 mps 755 mmHg 70%
    19:00 +28°C° 0 mm 3 mps 755 mmHg 75%
    20:00 +26°C° 0 mm 4 mps 755 mmHg 77%
    21:00 +25°C° 0 mm 4 mps 755 mmHg 78%
    22:00 +23°C° 0 mm 4 mps 755 mmHg 80%
    23:00 +23°C° 0 mm 4 mps 755 mmHg 83%

    Day after tomorrow, 26 June, Wednesday

    Time Temperature Precipitation Wind Pressure Humidity
    00:00 +22°C° 0 mm 3 mps 755 mmHg 86%
    01:00 +21°C° 0 mm 3 mps 755 mmHg 89%
    02:00 +21°C° 0 mm 3 mps 755 mmHg 90%
    03:00 +21°C° 0 mm 3 mps 754 mmHg 91%
    04:00 +20°C° 0 mm 2 mps 754 mmHg 92%
    05:00 +23°C° 0 mm 2 mps 754 mmHg 86%
    06:00 +25°C° 0 mm 2 mps 754 mmHg 81%
    07:00 +27°C° 0 mm 2 mps 754 mmHg 76%
    08:00 +28°C° 0 mm 2 mps 754 mmHg 69%
    09:00 +30°C° 0 mm 3 mps 754 mmHg 61%
    10:00 +33°C° 0 mm 3 mps 753 mmHg 54%
    11:00 +33°C° 0 mm 3 mps 753 mmHg 51%
    12:00 +34°C° 0 mm 3 mps 753 mmHg 49%
    13:00 +35°C° 0 mm 4 mps 753 mmHg 46%
    14:00 +35°C° 0 mm 4 mps 752 mmHg 46%
    15:00 +35°C° 0 mm 4 mps 752 mmHg 47%
    16:00 +35°C° 0 mm 4 mps 751 mmHg 47%
    17:00 +33°C° 0 mm 3 mps 751 mmHg 52%
    18:00 +31°C° 0 mm 3 mps 751 mmHg 57%
    19:00 +30°C° 0 mm 2 mps 750 mmHg 62%
    20:00 +29°C° 0 mm 3 mps 750 mmHg 64%
    21:00 +28°C° 0 mm 3 mps 750 mmHg 66%
    22:00 +27°C° 0 mm 4 mps 750 mmHg 68%
    23:00 +26°C° 0.5 mm 4 mps 750 mmHg 74%

    27 June, Thursday

    Time Temperature Precipitation Wind Pressure Humidity
    00:00 +25°C° 0.5 mm 4 mps 750 mmHg 79%
    01:00 +25°C° 0.5 mm 4 mps 750 mmHg 85%
    02:00 +23°C° 0.5 mm 4 mps 750 mmHg 89%
    03:00 +22°C° 0.5 mm 4 mps 750 mmHg 92%
    04:00 +22°C° 0.5 mm 4 mps 750 mmHg 96%
    05:00 +21°C° 0 mm 5 mps 750 mmHg 91%
    06:00 +21°C° 0 mm 6 mps 750 mmHg 86%
    07:00 +21°C° 0 mm 6 mps 751 mmHg 82%
    08:00 +21°C° 0 mm 6 mps 751 mmHg 78%
    09:00 +21°C° 0 mm 6 mps 751 mmHg 75%
    10:00 +21°C° 0 mm 6 mps 751 mmHg 71%
    11:00 +21°C° 0 mm 6 mps 751 mmHg 69%
    12:00 +22°C° 0 mm 6 mps 751 mmHg 68%
    13:00 +22°C° 0 mm 6 mps 751 mmHg 66%
    14:00 +22°C° 0 mm 5 mps 751 mmHg 65%
    15:00 +23°C° 0 mm 5 mps 751 mmHg 64%
    16:00 +25°C° 0 mm 5 mps 751 mmHg 62%
    17:00 +23°C° 0.1 mm 4 mps 751 mmHg 67%
    18:00 +22°C° 0.1 mm 4 mps 751 mmHg 72%
    19:00 +21°C° 0.1 mm 3 mps 751 mmHg 77%
    20:00 +21°C° 0.1 mm 3 mps 751 mmHg 81%
    21:00 +20°C° 0.1 mm 3 mps 751 mmHg 84%
    22:00 +19°C° 0.1 mm 2 mps 752 mmHg 87%
    23:00 +18°C° 0.1 mm 2 mps 752 mmHg 89%

    28 June, Friday

    Time Temperature Precipitation Wind Pressure Humidity
    00:00 +17°C° 0.1 mm 2 mps 752 mmHg 91%
    01:00 +17°C° 0.1 mm 2 mps 752 mmHg 93%
    02:00 +16°C° 0 mm 2 mps 751 mmHg 94%
    03:00 +16°C° 0 mm 3 mps 751 mmHg 95%
    04:00 +14°C° 0 mm 3 mps 751 mmHg 96%
    05:00 +15°C° 0 mm 4 mps 750 mmHg 90%
    06:00 +16°C° 0 mm 5 mps 750 mmHg 83%
    07:00 +17°C° 0 mm 6 mps 750 mmHg 76%
    08:00 +19°C° 0 mm 6 mps 750 mmHg 73%
    09:00 +20°C° 0 mm 6 mps 750 mmHg 69%
    10:00 +21°C° 0 mm 6 mps 750 mmHg 66%
    11:00 +21°C° 0 mm 6 mps 750 mmHg 65%
    12:00 +22°C° 0 mm 5 mps 750 mmHg 65%
    13:00 +22°C° 0 mm 5 mps 750 mmHg 64%
    14:00 +23°C° 0.1 mm 5 mps 750 mmHg 63%
    15:00 +23°C° 0.1 mm 6 mps 750 mmHg 62%
    16:00 +23°C° 0.1 mm 6 mps 750 mmHg 62%
    17:00 +22°C° 0 mm 5 mps 750 mmHg 62%
    18:00 +21°C° 0 mm 4 mps 750 mmHg 62%
    19:00 +20°C° 0 mm 4 mps 751 mmHg 62%
    20:00 +18°C° 0 mm 4 mps 751 mmHg 64%
    21:00 +17°C° 0 mm 3 mps 752 mmHg 66%
    22:00 +14°C° 0 mm 3 mps 752 mmHg 67%
    23:00 +13°C° 0 mm 3 mps 752 mmHg 69%

    29 June, Saturday

    Time Temperature Precipitation Wind Pressure Humidity
    00:00 +13°C° 0 mm 2 mps 752 mmHg 70%
    01:00 +13°C° 0 mm 1 mps 752 mmHg 71%
    02:00 +12°C° 0 mm 1 mps 752 mmHg 72%
    03:00 +12°C° 0 mm 1 mps 752 mmHg 72%
    04:00 +12°C° 0 mm 1 mps 752 mmHg 73%
    05:00 +14°C° 0 mm 1 mps 752 mmHg 68%
    06:00 +15°C° 0 mm 1 mps 752 mmHg 63%
    07:00 +18°C° 0 mm 1 mps 752 mmHg 59%
    08:00 +20°C° 0 mm 1 mps 752 mmHg 54%
    09:00 +20°C° 0 mm 2 mps 752 mmHg 49%
    10:00 +21°C° 0 mm 2 mps 752 mmHg 44%
    11:00 +22°C° 0 mm 3 mps 752 mmHg 43%
    12:00 +24°C° 0 mm 3 mps 752 mmHg 42%
    13:00 +25°C° 0 mm 4 mps 751 mmHg 41%
    14:00 +25°C° 0 mm 4 mps 751 mmHg 43%
    15:00 +25°C° 0 mm 5 mps 751 mmHg 45%
    16:00 +25°C° 0 mm 5 mps 751 mmHg 47%
    17:00 +23°C° 0 mm 5 mps 751 mmHg 51%
    18:00 +22°C° 0 mm 4 mps 751 mmHg 55%
    19:00 +21°C° 0 mm 4 mps 751 mmHg 59%
    20:00 +19°C° 0 mm 3 mps 751 mmHg 59%
    21:00 +16°C° 0 mm 3 mps 752 mmHg 58%
    22:00 +13°C° 0 mm 3 mps 752 mmHg 58%
    23:00 +12°C° 0 mm 3 mps 752 mmHg 62%
    Show more